This is the latest recevied weather packets stored in our database for station/object KI4HRG. If no packets are shown the sender has not sent any weather packets the latest 10 day(s).
| Time | Temp. | Humidity | Pressure | Rain* | Wind** | Luminosity | Snow |
|---|---|---|---|---|---|---|---|
| 1777745082 | 20° C | 38% | 1015.8 hPa | 0 mm | - | 731 W/m² | - |
| 1777744778 | 18.89° C | 38% | 1015.9 hPa | 0 mm | - | 716 W/m² | - |
| 1777744472 | 18.89° C | 40% | 1016.1 hPa | 0 mm | - | 712 W/m² | - |
| 1777744169 | 18.89° C | 41% | 1016.1 hPa | 0 mm | - | 695 W/m² | - |
| 1777743866 | 19.44° C | 39% | 1015.9 hPa | 0 mm | - | 687 W/m² | - |
| 1777743562 | 19.44° C | 39% | 1016.1 hPa | 0 mm | - | 691 W/m² | - |
| 1777743259 | 18.89° C | 42% | 1016.2 hPa | 0 mm | - | 703 W/m² | - |
| 1777742958 | 18.89° C | 43% | 1016.3 hPa | 0 mm | - | 694 W/m² | - |
| 1777742655 | 18.33° C | 44% | 1016.3 hPa | 0 mm | - | 696 W/m² | - |
| 1777742350 | 18.33° C | 44% | 1016.1 hPa | 0 mm | - | 701 W/m² | - |
| 1777742047 | 17.78° C | 46% | 1016.2 hPa | 0 mm | - | 689 W/m² | - |
| 1777741744 | 18.89° C | 45% | 1016.3 hPa | 0 mm | - | 706 W/m² | - |
| 1777741441 | 17.78° C | 45% | 1016.1 hPa | 0 mm | - | 744 W/m² | - |
| 1777741136 | 18.33° C | 47% | 1016.1 hPa | 0 mm | - | 734 W/m² | - |
| 1777740834 | 18.89° C | 43% | 1015.9 hPa | 0 mm | - | 717 W/m² | - |
| 1777740531 | 18.33° C | 47% | 1016 hPa | 0 mm | - | 711 W/m² | - |
| 1777740228 | 17.78° C | 48% | 1016.2 hPa | 0 mm | - | 714 W/m² | - |
| 1777739924 | 17.22° C | 50% | 1016.2 hPa | 0 mm | - | 727 W/m² | - |
| 1777739620 | 17.22° C | 49% | 1016.2 hPa | 0 mm | - | 726 W/m² | - |
| 1777739318 | 16.67° C | 50% | 1016.4 hPa | 0 mm | - | 793 W/m² | - |
| 1777739014 | 16.67° C | 53% | 1016.4 hPa | 0 mm | - | 521 W/m² | - |
| 1777738712 | 16.67° C | 52% | 1016.6 hPa | 0 mm | - | 502 W/m² | - |
| 1777738407 | 16.67° C | 54% | 1016.4 hPa | 0 mm | - | 476 W/m² | - |
| 1777738106 | 16.67° C | 55% | 1016.4 hPa | 0 mm | - | 491 W/m² | - |
| 1777737804 | 16.67° C | 55% | 1016.4 hPa | 0 mm | - | 520 W/m² | - |
* Rain latest hour (hover to see other rain measurements)
** Current wind speed in m/s (hover to see current wind gust speed)